TimeEST,TemperatureF,Dew PointF,Humidity,Sea Level PressureIn,VisibilityMPH,Wind Direction,Wind SpeedMPH,Gust SpeedMPH,PrecipitationIn,Events,Conditions,WindDirDegrees,DateUTC
12:55 AM,1.9,-7.1,66,29.81,10.0,SW,16.1,21.9,N/A,,Overcast,230,2014-01-29 05:55:00
1:34 AM,1.0,-6.0,72,29.74,2.5,SW,16.1,-,0.00,Snow,Light Snow,230,2014-01-29 06:34:00
1:41 AM,1.0,-6.0,72,29.74,4.0,SW,16.1,24.2,0.00,Snow,Light Snow,230,2014-01-29 06:41:00
1:55 AM,1.0,-6.0,72,29.78,2.5,WSW,12.7,25.3,0.00,Snow,Light Snow,240,2014-01-29 06:55:00
2:04 AM,1.0,-5.1,75,29.73,5.0,SW,13.8,23.0,0.00,Snow,Light Snow,230,2014-01-29 07:04:00
2:55 AM,1.0,-6.0,72,29.77,5.0,WSW,15.0,21.9,0.00,Snow,Light Snow,240,2014-01-29 07:55:00
3:25 AM,1.0,-5.1,75,29.72,2.0,WSW,18.4,24.2,0.00,Snow,Light Snow,240,2014-01-29 08:25:00
3:43 AM,1.0,-6.0,72,29.71,3.0,SW,17.3,24.2,0.00,Snow,Light Snow,230,2014-01-29 08:43:00
3:55 AM,1.0,-5.1,75,29.76,1.8,WSW,15.0,-,0.00,Snow,Light Snow,240,2014-01-29 08:55:00
4:32 AM,1.0,-5.1,75,29.70,1.8,WSW,15.0,24.2,0.00,Snow,Light Snow,240,2014-01-29 09:32:00
4:39 AM,1.0,-5.1,75,29.70,2.0,WSW,15.0,23.0,0.00,Snow,Light Snow,240,2014-01-29 09:39:00
4:55 AM,1.0,-5.1,75,29.76,1.5,WSW,15.0,20.7,0.00,Snow,Light Snow,240,2014-01-29 09:55:00
5:10 AM,1.0,-5.1,75,29.71,1.2,WSW,13.8,21.9,0.00,Snow,Light Snow,240,2014-01-29 10:10:00
5:23 AM,1.0,-5.1,75,29.71,2.0,WSW,12.7,20.7,0.00,Snow,Light Snow,250,2014-01-29 10:23:00
5:40 AM,1.0,-5.1,75,29.71,1.5,WSW,16.1,-,0.00,Snow,Light Snow,250,2014-01-29 10:40:00
5:55 AM,1.0,-5.1,75,29.77,1.8,WSW,16.1,-,0.00,Snow,Light Snow,240,2014-01-29 10:55:00
6:33 AM,1.0,-5.1,75,29.72,3.0,WSW,15.0,-,0.00,Snow,Light Snow,240,2014-01-29 11:33:00
6:55 AM,1.0,-5.1,75,29.78,3.0,WSW,16.1,-,0.00,,Haze,240,2014-01-29 11:55:00
7:11 AM,1.0,-5.1,75,29.73,2.0,WSW,12.7,-,0.00,Snow,Light Snow,250,2014-01-29 12:11:00
7:52 AM,1.4,-5.8,72,29.74,3.0,WSW,9.2,-,0.00,Snow,Light Snow,250,2014-01-29 12:52:00
7:55 AM,1.0,-5.1,75,29.80,3.0,WSW,12.7,19.6,0.00,Snow,Light Snow,240,2014-01-29 12:55:00
8:02 AM,1.0,-5.1,75,29.74,2.5,WSW,11.5,19.6,0.00,Snow,Light Snow,250,2014-01-29 13:02:00
8:17 AM,1.0,-5.1,75,29.75,2.0,WSW,13.8,-,0.00,Snow,Light Snow,240,2014-01-29 13:17:00
8:31 AM,1.9,-5.1,72,29.75,3.0,SW,11.5,-,0.00,Snow,Light Snow,230,2014-01-29 13:31:00
8:52 AM,1.4,-4.0,78,29.77,2.0,WSW,15.0,23.0,0.00,Snow,Light Snow,240,2014-01-29 13:52:00
8:55 AM,1.9,-4.0,76,29.82,1.8,WSW,15.0,-,0.00,Snow,Light Snow,240,2014-01-29 13:55:00
9:02 AM,1.9,-4.0,76,29.77,2.5,SW,15.0,-,0.00,Snow,Light Snow,230,2014-01-29 14:02:00
9:19 AM,1.9,-5.1,72,29.77,3.0,WSW,11.5,-,0.00,Snow,Light Snow,240,2014-01-29 14:19:00
9:27 AM,1.9,-4.0,76,29.77,2.0,WSW,13.8,-,0.00,Snow,Light Snow,240,2014-01-29 14:27:00
9:43 AM,3.0,-4.0,73,29.78,3.0,WSW,10.4,-,0.00,Snow,Light Snow,240,2014-01-29 14:43:00
9:55 AM,3.0,-2.9,76,29.83,3.0,WSW,15.0,-,0.00,Snow,Light Snow,240,2014-01-29 14:55:00
10:55 AM,6.1,-0.9,73,29.85,7.0,SW,8.1,18.4,0.00,,Overcast,230,2014-01-29 15:55:00
11:55 AM,8.1,-0.0,70,29.87,9.0,WSW,11.5,-,0.00,,Overcast,250,2014-01-29 16:55:00
12:55 PM,10.9,1.9,67,29.86,10.0,WSW,9.2,-,N/A,,Mostly Cloudy,240,2014-01-29 17:55:00
1:55 PM,10.9,3.0,70,29.88,3.0,WSW,13.8,19.6,0.00,Snow,Light Snow,240,2014-01-29 18:55:00
2:17 PM,12.9,3.0,65,29.83,10.0,Variable,6.9,-,0.00,,Scattered Clouds,0,2014-01-29 19:17:00
2:55 PM,14.0,3.0,62,29.90,10.0,WSW,12.7,-,0.01,,Clear,240,2014-01-29 19:55:00
3:55 PM,12.9,1.9,62,29.90,10.0,SW,15.0,-,0.05,,Clear,230,2014-01-29 20:55:00
4:55 PM,10.9,1.0,64,29.91,10.0,SSW,12.7,-,N/A,,Clear,200,2014-01-29 21:55:00
5:55 PM,9.0,3.0,77,29.93,10.0,SSW,6.9,-,N/A,,Mostly Cloudy,210,2014-01-29 22:55:00
6:55 PM,9.0,3.0,77,29.94,7.0,ESE,3.5,-,N/A,,Overcast,110,2014-01-29 23:55:00
7:55 PM,10.0,5.0,80,29.93,9.0,East,4.6,-,N/A,,Overcast,100,2014-01-30 00:55:00
8:55 PM,10.9,6.1,81,29.91,10.0,ESE,5.8,-,N/A,,Overcast,110,2014-01-30 01:55:00
9:55 PM,12.0,7.0,80,29.88,10.0,Variable,4.6,-,N/A,,Overcast,0,2014-01-30 02:55:00
10:55 PM,12.9,7.0,77,29.87,10.0,ESE,5.8,-,N/A,,Overcast,120,2014-01-30 03:55:00
11:55 PM,14.0,8.1,77,29.86,10.0,SSE,5.8,-,N/A,,Mostly Cloudy,160,2014-01-30 04:55:00